Regional Weather Roundup
Issued by NWS Burlington, VT

Home | Current Version | Previous Version | Text Only | Print | Product List | Glossary On
Versions: 1 2 3 4 5 6 7 8 9 10 11 12 13 14 15 16 17 18 19 20 21 22 23 24 25 26 27 28 29 30 31 32 33 34 35 36 37 38 39 40 41 42 43 44 45 46 47 48 49 50
000
ASUS41 KBTV 100510
RWRBTV
VERMONT REGIONAL WEATHER ROUNDUP
NATIONAL WEATHER SERVICE BURLINGTON VT
1200 AM EST SAT DEC 10 2016

NOTE: "FAIR" INDICATES FEW OR NO CLOUDS BELOW 12,000 FEET WITH NO
SIGNIFICANT WEATHER AND/OR OBSTRUCTIONS TO VISIBILITY.

* THESE REPORTS ARE NOT UNDER NWS QUALITY CONTROL AND/OR DO NOT
  REPORT WEATHER SUCH AS PRECIPITATION AND FOG.

VTZ001>019-100600-
_____VERMONT_____


CITY           SKY/WX    TMP DP  RH WIND       PRES   REMARKS
BURLINGTON     CLOUDY    22   6  50 NW14      30.22F WCI   9
MONTPELIER     CLOUDY    16   6  65 NW9       30.18R WCI   4
MORRISVILLE    CLOUDY    18   3  52 NW6       30.19R WCI  10
ST. JOHNSBURY*   N/A     18   5  57 MISG      30.15S
LYNDONVILLE*   CLOUDY    13   6  71 NW3       30.13S
MIDDLEBURY*    CLOUDY    19  13  77 N7        30.22R WCI  10
RUTLAND*       MOCLDY    18   7  62 NW9       30.19S WCI   7
SPRINGFIELD    PTCLDY    20   5  52 NW7       30.20R WCI  11
HIGHGATE*      CLOUDY    20   7  58 CALM      30.22S
NEWPORT*       CLOUDY    14   6  70 CALM      30.15S
BENNINGTON     MOCLDY    21   5  50 NW6       30.19S WCI  13

_____LAKE CHAMPLAIN_____


CITY           SKY/WX    TMP DP  RH WIND       PRES   REMARKS
BURTON ISLAND*   N/A     25  12  58 NW14        N/A  WCI  13
COLCHESTER RF*   N/A     25  10  54 NW17        N/A  WCI  11

$$

NYZ007-026>031-035-052-083-087-100600-
_____NORTHERN NEW YORK_____


CITY           SKY/WX    TMP DP  RH WIND       PRES   REMARKS
PLATTSBURGH    CLOUDY    21   4  47 NW5       30.23S WCI  15
SARANAC LAKE   CLOUDY    11   7  84 SW5       30.13R WCI   3
MASSENA        CLOUDY    20  11  68 W7        30.28R WCI  11
OGDENSBURG*    CLEAR     18  14  86 NW9       30.28S WCI   6
POTSDAM*       CLOUDY    18  14  86 NW7       30.26S WCI   8
WATERTOWN      CLOUDY    22  14  71 N8        30.29S WCI  12
FT DRUM        CLOUDY    19  10  69 N8        30.25S WCI   9
ALBANY         PTCLDY    19  11  70 W6        30.26S WCI  11
GLENS FALLS    PTCLDY    23   6  48 NW6       30.25S WCI  16

$$
NHZ002-005-011-100600-
_____NEW HAMPSHIRE_____


CITY           SKY/WX    TMP DP  RH WIND       PRES   REMARKS
LEBANON        CLOUDY    22  10  60 NW12G20   30.17S WCI  10
KEENE          PTCLDY    21   7  54 NW7       30.19S WCI  12
MT WASHINGTON  SNOW     -11 -11 100 NW72G81     N/A  VSB 0   WCI -52
PLYMOUTH         N/A     20  11  69 NW10G18   30.15R WCI   8
WHITEFIELD     CLOUDY    15   1  53 VRB6      30.13S WCI   6

$$

_____REGIONAL QUEBEC LOCATIONS_____


CITY           SKY/WX    TMP DP  RH WIND       PRES   REMARKS
MONTREAL       PTCLDY    19   5  53 NW6       30.23R WCI  11
QUEBEC CITY    PTCLDY    10  -2  56 NW9       30.11R WCI  -2
SHERBROOKE     FLURRIES  14   5  67 W10       30.11S WCI   1

_____REGIONAL ONTARIO LOCATIONS_____


CITY           SKY/WX    TMP DP  RH WIND       PRES   REMARKS
OTTAWA         MOCLDY    18  12  79 NW8       30.27R WCI   7

______KEY______
VSB  - VISIBILITY IN MILES
WCI  - WIND CHILL INDEX
HX   - HEAT INDEX
$$
NNNN




USA.gov is the U.S. government's official web portal to all federal, state and local government web resources and services.